OH2TI Weather Reports


Display with metric or nautical units.
time (UTC)temp
F
wind
direction
speed
MPH
gust
MPH
rain 1hr
in
rain 24hr
in
rain mn
in
humidity
%
barometer
mb
20260507044529 44 71 2.0 6.0 0.00 0.00 0.00 42 1012.2
20260507043912 44 23 2.0 4.0 0.00 0.00 0.00 43 1012.1
20260507042806 43 359 1.0 3.0 0.00 0.00 0.00 45 1012.2
20260507042019 42 359 2.0 4.0 0.00 0.00 0.00 46 1012.2
20260507041359 41 16 2.0 4.0 0.00 0.00 0.00 48 1012.1
20260507040134 40 18 2.0 5.0 0.00 0.00 0.00 51 1012.1
20260507034719 39 339 2.0 4.0 0.00 0.00 0.00 53 1012.0
20260507033804 38 340 2.0 3.0 0.00 0.00 0.00 54 1012.0
20260507032649 38 321 2.0 3.0 0.00 0.00 0.00 54 1011.9
20260507031619 37 340 4.0 6.0 0.00 0.00 0.00 55 1011.8
20260507030219 37 333 3.0 5.0 0.00 0.00 0.00 55 1011.7
20260507025109 37 329 3.0 4.0 0.00 0.00 0.00 55 1011.6
20260507024206 37 344 3.0 5.0 0.00 0.00 0.00 55 1011.6
20260507023621 37 334 3.0 5.0 0.00 0.00 0.00 55 1011.6
20260507022851 37 334 2.0 4.0 0.00 0.00 0.00 55 1011.6
20260507021732 37 322 3.0 5.0 0.00 0.00 0.00 54 1011.7
20260507021104 37 322 2.0 3.0 0.00 0.00 0.00 55 1011.7
20260507020144 37 333 3.0 5.0 0.00 0.00 0.00 54 1011.7
20260507015136 37 309 2.0 3.0 0.00 0.00 0.00 54 1011.7
20260507013906 38 324 3.0 4.0 0.00 0.00 0.00 53 1011.6
20260507013229 38 319 2.0 4.0 0.00 0.00 0.00 53 1011.6
20260507012314 38 319 2.0 4.0 0.00 0.00 0.00 53 1011.6
20260507010834 38 314 2.0 3.0 0.00 0.00 0.00 52 1011.6
20260507005602 38 359 2.0 3.0 0.00 0.00 0.00 51 1011.6
20260507004434 39 321 2.0 4.0 0.00 0.00 0.00 50 1011.6
20260507003221 39 311 2.0 4.0 0.00 0.00 0.00 51 1011.5
20260507002351 39 309 2.0 4.0 0.00 0.00 0.00 50 1011.5
20260507001519 39 2 1.0 3.0 0.00 0.00 0.00 49 1011.4
20260507000322 40 323 3.0 5.0 0.00 0.00 0.00 49 1011.4
20260506234944 40 327 4.0 5.0 0.00 0.00 0.00 48 1011.4
20260506233909 40 325 1.0 5.0 0.00 0.00 0.00 48 1011.4
20260506232802 40 318 2.0 6.0 0.00 0.00 0.00 48 1011.3
20260506232239 40 333 3.0 5.0 0.00 0.00 0.00 48 1011.3
20260506231644 41 354 2.0 5.0 0.00 0.00 0.00 47 1011.3
20260506230719 41 336 3.0 5.0 0.00 0.00 0.00 47 1011.4
20260506225536 41 341 4.0 6.0 0.00 0.00 0.00 47 1011.3
20260506224409 41 324 3.0 5.0 0.00 0.00 0.00 50 1011.3
20260506223236 41 340 3.0 6.0 0.00 0.00 0.00 52 1011.3
20260506222334 41 332 3.0 7.0 0.00 0.00 0.00 54 1011.2
20260506221732 41 324 3.0 5.0 0.00 0.00 0.00 59 1011.2
20260506220249 41 321 2.0 4.0 0.00 0.00 0.00 66 1011.2
20260506215312 41 321 3.0 4.0 0.00 0.00 0.00 69 1011.1
20260506214336 41 326 2.0 3.0 0.00 0.00 0.00 73 1011.0
20260506213719 41 315 2.0 3.0 0.00 0.00 0.00 77 1011.0
20260506212622 41 326 2.0 2.0 0.00 0.00 0.00 77 1010.9
20260506211349 41 322 1.0 2.0 0.00 0.00 0.00 77 1010.9
20260506210349 41 309 2.0 3.0 0.00 0.00 0.00 79 1010.9
20260506205836 41 310 2.0 3.0 0.00 0.00 0.00 79 1010.8
20260506204921 41 317 1.0 2.0 0.00 0.00 0.00 78 1010.8
20260506204042 41 328 1.0 2.0 0.00 0.00 0.00 77 1010.8
20260506203519 42 324 1.0 1.0 0.00 0.00 0.00 75 1010.8
20260506202259 42 213 0.0 1.0 0.00 0.00 0.00 73 1010.8
20260506200834 43 201 2.0 2.0 0.00 0.00 0.00 76 1010.8
20260506195549 43 158 0.0 1.0 0.00 0.00 0.00 74 1010.8
20260506194412 44 178 1.0 2.0 0.00 0.00 0.00 68 1010.8
20260506193019 44 230 1.0 1.0 0.00 0.00 0.00 66 1010.6
20260506192019 44 192 1.0 2.0 0.00 0.00 0.00 65 1010.6
20260506190724 44 209 1.0 2.0 0.00 0.00 0.00 67 1010.6
20260506190119 45 193 1.0 2.0 0.00 0.00 0.00 63 1010.6
20260506185124 45 153 1.0 2.0 0.00 0.00 0.00 63 1010.6
20260506183719 45 208 0.0 1.0 0.00 0.00 0.00 64 1010.6
20260506182959 45 190 2.0 4.0 0.00 0.00 0.00 64 1010.6
20260506182202 46 167 2.0 4.0 0.00 0.00 0.00 62 1010.6
20260506180906 46 202 1.0 3.0 0.00 0.00 0.00 59 1010.5
20260506175714 46 195 4.0 7.0 0.00 0.00 0.00 61 1010.5
20260506175152 48 157 2.0 4.0 0.00 0.00 0.00 58 1010.5
20260506174152 48 215 2.0 6.0 0.00 0.00 0.00 47 1010.5
20260506173119 48 189 2.0 5.0 0.00 0.00 0.00 47 1010.5
20260506172119 49 195 4.0 7.0 0.00 0.00 0.00 46 1010.5
20260506170709 49 218 4.0 8.0 0.00 0.00 0.00 45 1010.5
20260506165619 49 232 3.0 6.0 0.00 0.00 0.00 46 1010.4
20260506164629 49 215 5.0 8.0 0.00 0.00 0.00 45 1010.4
20260506163929 49 197 5.0 11.0 0.00 0.00 0.00 47 1010.4
20260506162522 49 202 3.0 7.0 0.00 0.00 0.00 48 1010.3
20260506161449 49 232 3.0 6.0 0.00 0.00 0.00 48 1010.4
20260506160904 49 209 4.0 9.0 0.00 0.00 0.00 47 1010.4
20260506160232 49 205 9.0 12.0 0.00 0.00 0.00 45 1010.3
20260506155442 50 198 4.0 9.0 0.00 0.00 0.00 44 1010.3
20260506154744 50 228 5.0 9.0 0.00 0.00 0.00 43 1010.4
20260506154154 50 237 4.0 11.0 0.00 0.00 0.00 42 1010.4
20260506153534 50 212 5.0 10.0 0.00 0.00 0.00 43 1010.4
20260506152139 48 190 6.0 12.0 0.00 0.00 0.00 49 1010.3
20260506151306 48 212 6.0 9.0 0.00 0.00 0.00 50 1010.4
20260506150602 48 198 6.0 12.0 0.00 0.00 0.00 50 1010.3
20260506145305 48 206 7.0 12.0 0.00 0.00 0.00 49 1010.6
20260506144519 48 200 8.0 14.0 0.00 0.00 0.00 49 1010.6
20260506143119 49 214 7.0 11.0 0.00 0.00 0.00 46 1010.6
20260506142239 49 213 6.0 9.0 0.00 0.00 0.00 44 1010.6
20260506140759 50 206 7.0 15.0 0.00 0.00 0.00 43 1010.4
20260506135804 50 203 7.0 12.0 0.00 0.00 0.00 39 1010.5
20260506134944 50 240 5.0 11.0 0.00 0.00 0.00 39 1010.5
20260506134219 50 213 7.0 15.0 0.00 0.00 0.00 40 1010.5
20260506133329 51 231 6.0 12.0 0.00 0.00 0.00 41 1010.6
20260506132734 50 198 7.0 15.0 0.00 0.00 0.00 42 1010.5
20260506132221 50 198 7.0 13.0 0.00 0.00 0.00 41 1010.4
20260506131019 50 203 9.0 19.0 0.00 0.00 0.00 40 1010.3
20260506125802 50 207 7.0 14.0 0.00 0.00 0.00 41 1010.3
20260506124654 49 197 10.0 18.0 0.00 0.00 0.00 45 1010.4
20260506123619 49 193 8.0 18.0 0.00 0.00 0.00 47 1010.4
20260506123042 50 190 6.0 17.0 0.00 0.00 0.00 47 1010.3
20260506121642 49 196 9.0 17.0 0.00 0.00 0.00 49 1010.4
20260506120659 48 198 6.0 13.0 0.00 0.00 0.00 54 1010.3
20260506115232 46 212 7.0 14.0 0.00 0.00 0.00 59 1010.2
20260506114412 46 210 8.0 16.0 0.00 0.00 0.00 59 1010.4
20260506113539 46 215 7.0 16.0 0.00 0.00 0.00 59 1010.3
20260506112542 46 195 6.0 11.0 0.00 0.00 0.00 60 1010.3
20260506111536 46 198 7.0 15.0 0.00 0.00 0.00 59 1010.2
20260506110409 47 193 5.0 13.0 0.00 0.00 0.00 57 1010.3
20260506104951 48 200 7.0 13.0 0.00 0.00 0.00 53 1010.3
20260506103959 48 192 6.0 15.0 0.00 0.00 0.00 55 1010.2
20260506103349 48 199 4.0 11.0 0.00 0.00 0.00 55 1010.1
20260506102644 49 191 3.0 8.0 0.00 0.00 0.00 52 1010.2
20260506101219 49 123 2.0 4.0 0.00 0.00 0.00 47 1010.3
20260506100429 50 288 3.0 6.0 0.00 0.00 0.00 31 1010.2
20260506095036 49 332 5.0 10.0 0.00 0.00 0.00 34 1010.0
20260506094532 49 342 8.0 13.0 0.00 0.00 0.00 34 1010.0
20260506093342 50 327 6.0 10.0 0.00 0.00 0.00 33 1010.0
20260506092349 49 301 3.0 6.0 0.00 0.00 0.00 35 1009.9
20260506091124 49 318 7.0 12.0 0.00 0.00 0.00 35 1009.7
20260506085636 48 316 8.0 16.0 0.00 0.00 0.00 35 1009.7
20260506084206 49 324 3.0 8.0 0.00 0.00 0.00 35 1009.7
20260506083236 47 304 4.0 9.0 0.00 0.00 0.00 37 1009.7
20260506081749 48 328 6.0 10.0 0.00 0.00 0.00 39 1009.6
20260506080449 48 351 6.0 12.0 0.00 0.00 0.00 39 1009.6
20260506073224 48 265 4.0 8.0 0.00 0.00 0.00 42 1009.4
20260506072312 48 315 6.0 10.0 0.00 0.00 0.00 43 1009.3
20260506070954 46 313 5.0 10.0 0.00 0.00 0.00 46 1009.2
20260506061919 45 291 3.0 5.0 0.00 0.00 0.00 54 1009.0
20260506060519 44 283 4.0 8.0 0.00 0.00 0.00 56 1008.8
20260506051134 41 315 6.0 10.0 0.00 0.00 0.00 65 1008.2